Погода в Чесан

Россия / Республика Бурятия     51°57′53″N   110°30′38″E
темп.,
°C
ветер,
м/с
пор.,
м/с
влажн.,
%
обл.,
%
осадки,
мм/ч
давл.,
гПа
погр.,
м
29 мая, вс
вс2923:00+2зсз365985 0.0 1007247
02:00+3зсз5105575 0.0 1006649
05:00+1з397089 0.0 1007400
08:00+6сз574675 0.0 10061402
11:00+9сз5733100 0.0 10032338
14:00+11сз6830100 0.0 10022364
17:00+10ссз7933100 0.0 10031958
20:00+9сз5940100 0.0 1003792
30 мая, пн
пн3023:00+5ссз225698 0.0 100619
02:00+2з11705 0.0 100610
05:00+1зюз217486 0.0 100711
08:00+9з464461 0.0 1004972
11:00+14ссз573389 0.0 10012217
14:00+17ссз682788 0.0 9982694
17:00+16ссз882646 0.0 9992573
20:00+12сз610362 0.0 1001601
31 мая, вт
вт3123:00+8сз49454 0.0 1003247
02:00+5з2256100 0.0 100418
05:00+4юз225983 0.0 100527
08:00+12зюз363874 0.0 1003588
11:00+15з7935100 0.0 10011927
14:00+10з61180100 0.8 10031279
17:00+15сз6104437 0.1 10021886
20:00+14зсз48515 0.1 1003599
1 июня, ср
ср123:00+8з49750 0.0 1005208
02:00+7зюз36820 0.0 1007115
05:00+5зюз259010 0.0 100795
08:00+13з57545 0.0 1005884
11:00+18з6103697 0.0 10042595
14:00+19з793687 0.0 10032664
17:00+19зсз67335 0.0 10012078
20:00+16ссз36385 0.0 1001146
2 июня, чт
чт223:00+9св225591 0.0 100412
02:00+7всв116297 0.0 100510
05:00+7всв22637 0.0 100512
08:00+14всв3540100 0.0 1003564
11:00+19всв452675 0.0 10001640
14:00+23в5521100 0.0 9982405
17:00+22в6621100 0.0 9982423
20:00+17в51028100 0.0 1000388